| time (UTC) | temp C | wind direction | speed KPH | gust KPH | rain 1hr cm | rain 24hr cm | rain mn cm | humidity % | barometer mb |
| 20260504070116 | 6 | 253 | 0.0 | 0.0 | 0.00 | 0.00 | 0.00 | 74 | 1016.1 |
| 20260504060122 | 6 | 253 | 0.0 | 0.0 | 0.00 | 0.00 | 0.00 | 74 | 1016.4 |
| 20260504050629 | 6 | 321 | 0.0 | 0.0 | 0.00 | 0.00 | 0.00 | 75 | 1016.3 |
| 20260504050117 | 6 | 321 | 0.0 | 0.0 | 0.00 | 0.00 | 0.00 | 75 | 1016.3 |
| 20260504045626 | 6 | 321 | 0.0 | 0.0 | 0.00 | 0.00 | 0.00 | 74 | 1016.3 |
| 20260504045116 | 6 | 321 | 0.0 | 0.0 | 0.00 | 0.00 | 0.00 | 74 | 1016.3 |
| 20260504044624 | 6 | 321 | 0.0 | 0.0 | 0.00 | 0.00 | 0.00 | 74 | 1016.3 |
| 20260504044114 | 6 | 321 | 0.0 | 0.0 | 0.00 | 0.00 | 0.00 | 74 | 1016.4 |
| 20260504043623 | 6 | 321 | 0.0 | 0.0 | 0.00 | 0.00 | 0.00 | 74 | 1016.3 |
| 20260504043132 | 6 | 321 | 0.0 | 0.0 | 0.00 | 0.00 | 0.00 | 74 | 1016.3 |
| 20260504042618 | 6 | 321 | 0.0 | 0.0 | 0.00 | 0.00 | 0.00 | 74 | 1016.3 |
| 20260504042126 | 6 | 321 | 0.0 | 0.0 | 0.00 | 0.00 | 0.00 | 72 | 1016.4 |
| 20260504041615 | 6 | 321 | 0.0 | 0.0 | 0.00 | 0.00 | 0.00 | 70 | 1016.3 |
| 20260504041140 | 7 | 321 | 0.0 | 0.0 | 0.00 | 0.00 | 0.00 | 69 | 1016.4 |
| 20260504040629 | 7 | 322 | 0.0 | 0.0 | 0.00 | 0.00 | 0.00 | 69 | 1016.3 |
| 20260504040117 | 7 | 321 | 0.0 | 3.2 | 0.00 | 0.00 | 0.00 | 70 | 1016.3 |
| 20260504035622 | 6 | 321 | 1.6 | 3.2 | 0.00 | 0.00 | 0.00 | 72 | 1016.3 |
| 20260504035131 | 6 | 229 | 0.0 | 3.2 | 0.00 | 0.00 | 0.00 | 69 | 1016.2 |
| 20260504034620 | 6 | 240 | 0.0 | 0.0 | 0.00 | 0.00 | 0.00 | 72 | 1016.1 |
| 20260504034129 | 6 | 240 | 0.0 | 0.0 | 0.00 | 0.00 | 0.00 | 70 | 1016.2 |
| 20260504033617 | 7 | 238 | 0.0 | 0.0 | 0.00 | 0.00 | 0.00 | 67 | 1016.1 |
| 20260504033125 | 7 | 238 | 0.0 | 0.0 | 0.00 | 0.00 | 0.00 | 65 | 1016.1 |
| 20260504032654 | 7 | 311 | 0.0 | 0.0 | 0.00 | 0.00 | 0.00 | 66 | 1015.9 |
| 20260504032122 | 7 | 311 | 0.0 | 0.0 | 0.00 | 0.00 | 0.00 | 69 | 1015.8 |
| 20260504031631 | 7 | 311 | 0.0 | 0.0 | 0.00 | 0.00 | 0.00 | 70 | 1015.8 |
| 20260504031119 | 7 | 311 | 0.0 | 0.0 | 0.00 | 0.00 | 0.00 | 68 | 1015.8 |
| 20260504030627 | 7 | 311 | 0.0 | 0.0 | 0.00 | 0.00 | 0.00 | 65 | 1015.8 |
| 20260504030117 | 8 | 311 | 0.0 | 0.0 | 0.00 | 0.00 | 0.00 | 64 | 1015.8 |
| 20260504025625 | 8 | 311 | 0.0 | 0.0 | 0.00 | 0.00 | 0.00 | 66 | 1015.7 |
| 20260504025114 | 7 | 311 | 0.0 | 0.0 | 0.00 | 0.00 | 0.00 | 69 | 1015.8 |
| 20260504024623 | 7 | 311 | 0.0 | 0.0 | 0.00 | 0.00 | 0.00 | 66 | 1015.7 |
| 20260504024148 | 7 | 311 | 0.0 | 0.0 | 0.00 | 0.00 | 0.00 | 66 | 1015.8 |
| 20260504023616 | 7 | 311 | 0.0 | 0.0 | 0.00 | 0.00 | 0.00 | 64 | 1015.8 |
| 20260504023125 | 7 | 311 | 0.0 | 0.0 | 0.00 | 0.00 | 0.00 | 63 | 1015.8 |
| 20260504022635 | 8 | 311 | 0.0 | 0.0 | 0.00 | 0.00 | 0.00 | 61 | 1015.8 |
| 20260504022123 | 8 | 311 | 0.0 | 0.0 | 0.00 | 0.00 | 0.00 | 61 | 1015.9 |
| 20260504021631 | 9 | 311 | 0.0 | 0.0 | 0.00 | 0.00 | 0.00 | 59 | 1015.8 |
| 20260504021119 | 8 | 311 | 0.0 | 0.0 | 0.00 | 0.00 | 0.00 | 61 | 1015.7 |
| 20260504020627 | 8 | 311 | 0.0 | 0.0 | 0.00 | 0.00 | 0.00 | 60 | 1015.6 |
| 20260504020117 | 8 | 311 | 0.0 | 0.0 | 0.00 | 0.00 | 0.00 | 60 | 1015.7 |
| 20260504015625 | 9 | 311 | 0.0 | 0.0 | 0.00 | 0.00 | 0.00 | 58 | 1015.6 |
| 20260504015115 | 9 | 311 | 0.0 | 0.0 | 0.00 | 0.00 | 0.00 | 57 | 1015.6 |
| 20260504014619 | 9 | 311 | 0.0 | 0.0 | 0.00 | 0.00 | 0.00 | 59 | 1015.6 |
| 20260504014128 | 9 | 311 | 0.0 | 0.0 | 0.00 | 0.00 | 0.00 | 60 | 1015.6 |
| 20260504013637 | 9 | 311 | 0.0 | 0.0 | 0.00 | 0.00 | 0.00 | 59 | 1015.6 |
| 20260504013125 | 9 | 311 | 0.0 | 0.0 | 0.00 | 0.00 | 0.00 | 55 | 1015.6 |
| 20260504012613 | 10 | 311 | 0.0 | 0.0 | 0.00 | 0.00 | 0.00 | 57 | 1015.6 |
| 20260504012117 | 10 | 311 | 0.0 | 0.0 | 0.00 | 0.00 | 0.00 | 54 | 1015.6 |
| 20260504011626 | 10 | 311 | 0.0 | 0.0 | 0.00 | 0.00 | 0.00 | 54 | 1015.6 |
| 20260504011115 | 10 | 311 | 0.0 | 0.0 | 0.00 | 0.00 | 0.00 | 54 | 1015.6 |
| 20260504010644 | 10 | 311 | 0.0 | 0.0 | 0.00 | 0.00 | 0.00 | 51 | 1015.4 |
| 20260504010132 | 11 | 311 | 0.0 | 0.0 | 0.00 | 0.00 | 0.00 | 52 | 1015.3 |
| 20260504005622 | 11 | 311 | 0.0 | 0.0 | 0.00 | 0.00 | 0.00 | 51 | 1015.2 |
| 20260504005130 | 11 | 311 | 0.0 | 0.0 | 0.00 | 0.00 | 0.00 | 54 | 1015.3 |
| 20260504004619 | 11 | 311 | 0.0 | 0.0 | 0.00 | 0.00 | 0.00 | 50 | 1015.2 |
| 20260504004127 | 11 | 311 | 0.0 | 0.0 | 0.00 | 0.00 | 0.00 | 49 | 1015.1 |
| 20260504003617 | 11 | 311 | 0.0 | 0.0 | 0.00 | 0.00 | 0.00 | 47 | 1015.1 |
| 20260504003125 | 11 | 311 | 0.0 | 0.0 | 0.00 | 0.00 | 0.00 | 46 | 1015.1 |
| 20260504002614 | 12 | 311 | 0.0 | 0.0 | 0.00 | 0.00 | 0.00 | 48 | 1015.1 |
| 20260504002123 | 12 | 311 | 0.0 | 0.0 | 0.00 | 0.00 | 0.00 | 44 | 1015.0 |
| 20260504001633 | 12 | 311 | 0.0 | 0.0 | 0.00 | 0.00 | 0.00 | 47 | 1014.8 |
| 20260504001121 | 12 | 311 | 0.0 | 1.6 | 0.00 | 0.00 | 0.00 | 44 | 1014.9 |
| 20260504000630 | 13 | 311 | 0.0 | 1.6 | 0.00 | 0.00 | 0.00 | 41 | 1014.8 |
| 20260504000117 | 13 | 311 | 0.0 | 1.6 | 0.00 | 0.00 | 0.00 | 39 | 1014.8 |
| 20260503235626 | 13 | 307 | 0.0 | 1.6 | 0.00 | 0.00 | 0.00 | 40 | 1014.7 |
| 20260503235115 | 13 | 307 | 0.0 | 3.2 | 0.00 | 0.00 | 0.00 | 37 | 1014.7 |
| 20260503234625 | 14 | 312 | 1.6 | 4.8 | 0.00 | 0.00 | 0.00 | 37 | 1014.7 |
| 20260503234128 | 14 | 299 | 3.2 | 4.8 | 0.00 | 0.00 | 0.00 | 35 | 1014.7 |
| 20260503233618 | 15 | 312 | 0.0 | 4.8 | 0.00 | 0.00 | 0.00 | 34 | 1014.5 |
| 20260503233126 | 15 | 300 | 1.6 | 4.8 | 0.00 | 0.00 | 0.00 | 34 | 1014.5 |
| 20260503232615 | 15 | 295 | 0.0 | 8.0 | 0.00 | 0.00 | 0.00 | 33 | 1014.4 |
| 20260503232123 | 15 | 304 | 3.2 | 8.0 | 0.00 | 0.00 | 0.00 | 32 | 1014.4 |
| 20260503231632 | 15 | 309 | 1.6 | 6.4 | 0.00 | 0.00 | 0.00 | 32 | 1014.4 |
| 20260503231122 | 15 | 301 | 1.6 | 12.9 | 0.00 | 0.00 | 0.00 | 31 | 1014.4 |
| 20260503230630 | 15 | 11 | 1.6 | 12.9 | 0.00 | 0.00 | 0.00 | 32 | 1014.4 |
| 20260503230119 | 15 | 299 | 3.2 | 12.9 | 0.00 | 0.00 | 0.00 | 31 | 1014.3 |
| 20260503225629 | 16 | 15 | 1.6 | 11.3 | 0.00 | 0.00 | 0.00 | 33 | 1014.2 |
| 20260503225118 | 16 | 314 | 1.6 | 11.3 | 0.00 | 0.00 | 0.00 | 32 | 1014.4 |
| 20260503224627 | 16 | 288 | 3.2 | 6.4 | 0.00 | 0.00 | 0.00 | 32 | 1014.4 |
| 20260503224116 | 16 | 309 | 3.2 | 11.3 | 0.00 | 0.00 | 0.00 | 31 | 1014.4 |
| 20260503223624 | 16 | 340 | 4.8 | 11.3 | 0.00 | 0.00 | 0.00 | 32 | 1014.4 |
| 20260503223132 | 16 | 295 | 3.2 | 11.3 | 0.00 | 0.00 | 0.00 | 31 | 1014.4 |
| 20260503222620 | 16 | 300 | 4.8 | 11.3 | 0.00 | 0.00 | 0.00 | 30 | 1014.4 |
| 20260503222129 | 16 | 328 | 1.6 | 8.0 | 0.00 | 0.00 | 0.00 | 30 | 1014.4 |
| 20260503221619 | 16 | 34 | 3.2 | 14.5 | 0.00 | 0.00 | 0.00 | 30 | 1014.4 |
| 20260503221128 | 16 | 92 | 4.8 | 24.1 | 0.00 | 0.00 | 0.00 | 30 | 1014.4 |
| 20260503220617 | 16 | 331 | 8.0 | 24.1 | 0.00 | 0.00 | 0.00 | 30 | 1014.5 |
| 20260503220126 | 16 | 313 | 6.4 | 17.7 | 0.00 | 0.00 | 0.00 | 30 | 1014.4 |
| 20260503215636 | 16 | 293 | 4.8 | 17.7 | 0.00 | 0.00 | 0.00 | 31 | 1014.4 |
| 20260503215118 | 16 | 316 | 4.8 | 17.7 | 0.00 | 0.00 | 0.00 | 30 | 1014.5 |
| 20260503214627 | 16 | 20 | 6.4 | 19.3 | 0.00 | 0.00 | 0.00 | 29 | 1014.4 |
| 20260503214115 | 16 | 20 | 4.8 | 19.3 | 0.00 | 0.00 | 0.00 | 29 | 1014.5 |
| 20260503213644 | 16 | 281 | 11.3 | 19.3 | 0.00 | 0.00 | 0.00 | 29 | 1014.4 |
| 20260503213132 | 16 | 343 | 8.0 | 19.3 | 0.00 | 0.00 | 0.00 | 29 | 1014.5 |
| 20260503212621 | 16 | 287 | 4.8 | 19.3 | 0.00 | 0.00 | 0.00 | 30 | 1014.5 |
| 20260503212129 | 17 | 288 | 4.8 | 14.5 | 0.00 | 0.00 | 0.00 | 31 | 1014.4 |
| 20260503211619 | 16 | 353 | 4.8 | 14.5 | 0.00 | 0.00 | 0.00 | 31 | 1014.4 |
| 20260503211127 | 16 | 5 | 4.8 | 16.1 | 0.00 | 0.00 | 0.00 | 29 | 1014.3 |
| 20260503210635 | 16 | 9 | 1.6 | 19.3 | 0.00 | 0.00 | 0.00 | 32 | 1014.4 |
| 20260503210123 | 16 | 300 | 8.0 | 25.7 | 0.00 | 0.00 | 0.00 | 29 | 1014.4 |
| 20260503205632 | 16 | 308 | 11.3 | 25.7 | 0.00 | 0.00 | 0.00 | 29 | 1014.4 |
| 20260503205120 | 16 | 71 | 3.2 | 17.7 | 0.00 | 0.00 | 0.00 | 30 | 1014.5 |
| 20260503204630 | 16 | 308 | 6.4 | 20.9 | 0.00 | 0.00 | 0.00 | 29 | 1014.5 |
| 20260503204118 | 16 | 290 | 9.7 | 20.9 | 0.00 | 0.00 | 0.00 | 31 | 1014.4 |
| 20260503203628 | 16 | 300 | 8.0 | 19.3 | 0.00 | 0.00 | 0.00 | 33 | 1014.5 |
| 20260503203116 | 16 | 325 | 4.8 | 16.1 | 0.00 | 0.00 | 0.00 | 34 | 1014.7 |
| 20260503202624 | 16 | 344 | 3.2 | 16.1 | 0.00 | 0.00 | 0.00 | 33 | 1014.8 |
| 20260503202149 | 16 | 12 | 6.4 | 16.1 | 0.00 | 0.00 | 0.00 | 31 | 1014.9 |
| 20260503201617 | 16 | 13 | 4.8 | 12.9 | 0.00 | 0.00 | 0.00 | 32 | 1014.9 |
| 20260503201125 | 16 | 308 | 4.8 | 11.3 | 0.00 | 0.00 | 0.00 | 31 | 1014.9 |
| 20260503200614 | 16 | 286 | 3.2 | 11.3 | 0.00 | 0.00 | 0.00 | 32 | 1014.9 |
| 20260503200122 | 16 | 3 | 6.4 | 19.3 | 0.00 | 0.00 | 0.00 | 32 | 1014.9 |
| 20260503195651 | 16 | 328 | 4.8 | 19.3 | 0.00 | 0.00 | 0.00 | 35 | 1015.0 |
| 20260503195117 | 16 | 14 | 1.6 | 9.7 | 0.00 | 0.00 | 0.00 | 35 | 1015.2 |
| 20260503194627 | 16 | 349 | 3.2 | 19.3 | 0.00 | 0.00 | 0.00 | 34 | 1015.2 |
| 20260503194135 | 16 | 332 | 9.7 | 19.3 | 0.00 | 0.00 | 0.00 | 32 | 1015.3 |
| 20260503193622 | 16 | 332 | 6.4 | 17.7 | 0.00 | 0.00 | 0.00 | 33 | 1015.5 |
| 20260503193151 | 16 | 311 | 4.8 | 14.5 | 0.00 | 0.00 | 0.00 | 33 | 1015.5 |
| 20260503192638 | 16 | 314 | 3.2 | 12.9 | 0.00 | 0.00 | 0.00 | 36 | 1015.5 |
| 20260503192126 | 15 | 39 | 3.2 | 12.9 | 0.00 | 0.00 | 0.00 | 35 | 1015.5 |
| 20260503191615 | 15 | 318 | 6.4 | 17.7 | 0.00 | 0.00 | 0.00 | 35 | 1015.7 |
| 20260503191120 | 15 | 288 | 6.4 | 24.1 | 0.00 | 0.00 | 0.00 | 35 | 1015.7 |
| 20260503190629 | 15 | 5 | 11.3 | 24.1 | 0.00 | 0.00 | 0.00 | 34 | 1015.6 |
| 20260503190119 | 16 | 321 | 6.4 | 22.5 | 0.00 | 0.00 | 0.00 | 35 | 1015.6 |
| 20260503185627 | 16 | 342 | 4.8 | 22.5 | 0.00 | 0.00 | 0.00 | 35 | 1015.8 |
| 20260503185136 | 16 | 300 | 8.0 | 22.5 | 0.00 | 0.00 | 0.00 | 36 | 1015.9 |
| 20260503184623 | 16 | 316 | 6.4 | 22.5 | 0.00 | 0.00 | 0.00 | 36 | 1016.0 |
| 20260503184131 | 15 | 312 | 1.6 | 14.5 | 0.00 | 0.00 | 0.00 | 38 | 1016.0 |
| 20260503183620 | 15 | 300 | 1.6 | 17.7 | 0.00 | 0.00 | 0.00 | 36 | 1015.9 |
| 20260503183148 | 15 | 299 | 8.0 | 17.7 | 0.00 | 0.00 | 0.00 | 33 | 1016.0 |
| 20260503182635 | 15 | 47 | 3.2 | 16.1 | 0.00 | 0.00 | 0.00 | 37 | 1016.1 |
| 20260503182123 | 15 | 301 | 8.0 | 16.1 | 0.00 | 0.00 | 0.00 | 36 | 1016.1 |
| 20260503181632 | 15 | 32 | 6.4 | 12.9 | 0.00 | 0.00 | 0.00 | 36 | 1016.1 |
| 20260503181141 | 15 | 355 | 3.2 | 14.5 | 0.00 | 0.00 | 0.00 | 37 | 1016.3 |
| 20260503180629 | 15 | 118 | 4.8 | 12.9 | 0.00 | 0.00 | 0.00 | 37 | 1016.1 |
| 20260503180118 | 15 | 4 | 3.2 | 11.3 | 0.00 | 0.00 | 0.00 | 33 | 1016.3 |
| 20260503175621 | 15 | 353 | 4.8 | 16.1 | 0.00 | 0.00 | 0.00 | 39 | 1016.3 |
| 20260503175130 | 15 | 280 | 9.7 | 16.1 | 0.00 | 0.00 | 0.00 | 34 | 1016.3 |
| 20260503174619 | 15 | 7 | 3.2 | 16.1 | 0.00 | 0.00 | 0.00 | 38 | 1016.4 |
| 20260503174127 | 13 | 287 | 8.0 | 14.5 | 0.00 | 0.00 | 0.00 | 37 | 1016.5 |
| 20260503173615 | 13 | 14 | 6.4 | 14.5 | 0.00 | 0.00 | 0.00 | 42 | 1016.4 |
| 20260503173124 | 14 | 329 | 4.8 | 24.1 | 0.00 | 0.00 | 0.00 | 35 | 1016.6 |
| 20260503172614 | 14 | 20 | 6.4 | 24.1 | 0.00 | 0.00 | 0.00 | 38 | 1016.6 |
| 20260503172122 | 14 | 328 | 8.0 | 17.7 | 0.00 | 0.00 | 0.00 | 36 | 1016.4 |
| 20260503171631 | 14 | 5 | 4.8 | 17.7 | 0.00 | 0.00 | 0.00 | 40 | 1016.5 |
| 20260503171120 | 13 | 336 | 1.6 | 14.5 | 0.00 | 0.00 | 0.00 | 40 | 1016.6 |
| 20260503170627 | 14 | 251 | 4.8 | 12.9 | 0.00 | 0.00 | 0.00 | 39 | 1016.7 |
| 20260503170117 | 13 | 353 | 6.4 | 12.9 | 0.00 | 0.00 | 0.00 | 38 | 1016.7 |
| 20260503160130 | 13 | 351 | 4.8 | 22.5 | 0.00 | 0.00 | 0.00 | 40 | 1017.1 |
| 20260503150625 | 12 | 349 | 4.8 | 17.7 | 0.00 | 0.00 | 0.00 | 41 | 1017.2 |
| 20260503150135 | 11 | 10 | 4.8 | 17.7 | 0.00 | 0.00 | 0.00 | 38 | 1017.2 |
| 20260503140145 | 10 | 338 | 4.8 | 14.5 | 0.00 | 0.00 | 0.00 | 41 | 1017.3 |
| 20260503131120 | 9 | 225 | 3.2 | 14.5 | 0.00 | 0.00 | 0.00 | 48 | 1017.3 |
| 20260503130629 | 9 | 29 | 1.6 | 14.5 | 0.00 | 0.00 | 0.00 | 51 | 1017.3 |
| 20260503130117 | 8 | 317 | 3.2 | 14.5 | 0.00 | 0.00 | 0.00 | 50 | 1017.3 |
| 20260503120122 | 6 | 10 | 3.2 | 14.5 | 0.00 | 0.00 | 0.00 | 63 | 1016.9 |
| 20260503110628 | 4 | 268 | 1.6 | 8.0 | 0.00 | 0.00 | 0.00 | 68 | 1016.5 |
| 20260503110118 | 4 | 359 | 3.2 | 6.4 | 0.00 | 0.00 | 0.00 | 68 | 1016.4 |
| 20260503100116 | 4 | 6 | 1.6 | 4.8 | 0.00 | 0.00 | 0.00 | 69 | 1015.4 |
| 20260503090114 | 4 | 315 | 1.6 | 6.4 | 0.00 | 0.00 | 0.00 | 72 | 1015.0 |
| 20260503081630 | 5 | 325 | 0.0 | 6.4 | 0.00 | 0.00 | 0.00 | 71 | 1014.6 |
| 20260503081118 | 5 | 319 | 1.6 | 6.4 | 0.00 | 0.00 | 0.00 | 71 | 1014.6 |
| 20260503080626 | 5 | 317 | 0.0 | 6.4 | 0.00 | 0.00 | 0.00 | 71 | 1014.6 |
| 20260503080116 | 5 | 315 | 1.6 | 6.4 | 0.00 | 0.00 | 0.00 | 70 | 1014.5 |
| 20260503072614 | 5 | 319 | 1.6 | 6.4 | 0.00 | 0.00 | 0.00 | 71 | 1014.3 |
| 20260503072121 | 5 | 356 | 1.6 | 6.4 | 0.00 | 0.00 | 0.00 | 71 | 1014.2 |
| 20260503071630 | 5 | 326 | 1.6 | 4.8 | 0.00 | 0.00 | 0.00 | 71 | 1014.3 |
| 20260503071117 | 5 | 22 | 0.0 | 3.2 | 0.00 | 0.00 | 0.00 | 71 | 1014.2 |
| 20260503070626 | 5 | 339 | 0.0 | 1.6 | 0.00 | 0.00 | 0.00 | 71 | 1014.2 |